Home > Weather > Sarh > Past weeks

Flag for Chad Weather for the Past 2 Weeks in Sarh, Chad

Now
70 °F

Clear.


Feels Like: 70 °F
Forecast: 64 / 95 °F
Wind: 7 mph from Northwest

Location: Sarh Airport

Current Time: Feb 10, 2016 at 2:52:27 AM

Latest Report: Feb 10, 2016 at 2:00 AM


Visibility: 10 mi

Pressure: 29.95 "Hg

Humidity: 20%

Dew point: 27 °F

Location of SarhLocation

Historic Weather in Sarh — Graph

°F

Sarh Temperature Yesterday

Maximum temperature yesterday: 102 °F (at 11:00 AM)
Minimum temperature yesterday: 66 °F (at 6:00 AM)
Average temperature yesterday: 84 °F

High & Low Weather Summary for the Past Weeks

 TemperatureHumidityPressure
High102 °F (Feb 5, 2:00 PM)65% (Feb 6, 2:00 AM)30.15 "Hg (Feb 6, 2:00 AM)
Low55 °F (Jan 29, 6:00 AM)6% (Feb 9, 11:00 AM)29.80 "Hg (Feb 5, 5:00 PM)
Average79 °F25%29.97 "Hg
* Reported Jan 26 1:00 AM — Feb 10 1:00 AM, Sarh, Weather by CustomWeather, © 2016

Note: Actual official high and low records may vary slightly from our data, if they occured in-between our weather recording intervals... More about our weather records

Advertising

Sarh Weather History for the Previous 24 Hours

 ConditionsComfort  
Time TempWeatherWind HumidityBarometerVisibility
1:00 AM
Wed, Feb 10
72 °FClear.7 mph19%29.95 "Hg10 mi
12:00 AM72 °FClear.5 mph15%29.98 "Hg10 mi
11:00 PM
Tue, Feb 9
77 °FClear.7 mph14%29.95 "Hg10 mi
9:00 PM81 °FClear.7 mph15%29.95 "Hg10 mi
8:00 PM81 °FClear.5 mph23%29.95 "Hg10 mi
7:00 PM82 °FClear.No wind30%29.95 "Hg10 mi
6:00 PM88 °FClear.No wind22%29.95 "Hg10 mi
5:00 PM93 °FSunny.7 mph10%29.95 "Hg10 mi
4:00 PM95 °FSunny.9 mph11%29.92 "Hg10 mi
3:00 PM97 °FSunny.7 mph6%29.95 "Hg10 mi
2:00 PM93 °FSunny.7 mph10%29.95 "Hg10 mi
1:00 PM91 °FSunny.9 mph9%30.01 "Hg10 mi
12:00 PM90 °FSunny.7 mph10%30.01 "Hg10 mi
11:00 AM102 °FSunny.10 mph6%30.04 "Hg10 mi
10:00 AM82 °FSunny.9 mph13%30.07 "Hg10 mi
9:00 AM77 °FSunny.9 mph15%30.07 "Hg10 mi
8:00 AM66 °FSunny.7 mph52%30.04 "Hg10 mi
6:00 AM66 °FClear.7 mph43%30.01 "Hg10 mi
Weather by CustomWeather, © 2016

See weather overviewHow to use our weather pages